星链-35488(STARLINK-35488)

导读

STARLINK-35488是美国太空探索技术公司SpaceX星链卫星互联网项目的卫星,于2025年10月29日由美国发射升空。该卫星作为星链星座的组成部分,旨在为全球范围内用户提供高速低延迟的互联网接入服务,进一步扩充星链星座的网络覆盖容量与服务能力。

Basic Information
目录编号:
66254
目录名称:
STARLINK-35488
国际标识:
2025-245W
轨道中心:
EARTH
卫星名称:
星链-35488
卫星全名:
星链-35488(STARLINK-35488)
卫星状态:
在轨 (已飞行310 天)
发射日期:
2025-10-29 UTC
国别 :
美国 (US)
星等 :
--
Orbit Information
数据来源 国际轨道数据 AOE轨道数据
星历时间 2026-09-04T14:35:16+0800
6小时前
查看轨道信息
2026-08-31T22:00:00+0800
3天前
查看轨道信息
半长轴 6848.808km 6848.855km
偏心率 0.000148 0.0001405
轨道倾角 53.158° 53.156°
近地点辐角 109.912° 76.597°
升交点赤经 173.320° 190.506°
平近点角 250.204° 78.632°
近地点 469.657km 469.755km
远地点 471.685km 471.681km
周期 94.012分钟 94.013分钟
每日圈数 15.317232 15.317076
Detailed Information
固有亮度:
5
最大亮度:
2.5
卫星平台:
Starlink V1.0
覆盖范围:
全球
运营商:
太空探索技术公司
运营商所在国:
美国
制造商(研发单位):
太空探索技术公司
制造商所在国:
美国
使用方式:
暂无
Satellite Introduction
Starlink 计划是 SpaceX 推出的全球卫星互联网项目,通过发射低轨道卫星,为全球尤其是偏远地区提供高速、低延迟的互联网服务。自 2019 年起,Starlink 已部署数千颗卫星,旨在缩小全球数字鸿沟,推动互联网普及。该项目还为军事、航空等行业提供通信支持,带来广泛经济效益。
2D Orbit Map
3D Orbit Map
Orbit Altitude Analysis Chart
Orbit Inclination Analysis Chart
Orbit Comprehensive Analysis Chart
View Comprehensive Chart
Conjunction Data List
Event ID Objects TCA Miss Dist (km) Collision Risk Probability Collision Risk Index (CRI) Action
CDM_260906-095206-625406-922021
2026-09-06T
09:52:38+0000
2.630 km
极远距离
1.425689E-6 低风险 0.38
CDM_260905-014606-625406-949221
2026-09-05T
01:46:07+0000
2.734 km
极远距离
1.333799E-6 低风险 0.38
CDM_260904-114406-415306-625421
2026-09-04T
11:44:21+0000
2.868 km
极远距离
1.329045E-6 低风险 0.37
CDM_260905-040906-625406-975621
2026-09-05T
04:09:55+0000
2.714 km
极远距离
1.260729E-6 低风险 0.37
CDM_260906-025006-625406-929721
2026-09-06T
02:50:59+0000
2.955 km
极远距离
1.238543E-6 低风险 0.37